Location: Newark
(0.5300°S, 127.4800°E)
Time: 09:38:05
(UTC+00:00)

Vanguard 3 - Pass Details

Date: 19 September 2019
Orbit: 508 x 3262 km, 33.3° (Epoch: 18 October)

Event Time Altitude Azimuth Distance (km) Brightness Sun altitude
Rises 08:49:19 0° 300° (WNW) 6,044 12.8 8.7°
Reaches altitude 10° 08:54:03 10° 297° (WNW) 4,595 12.4 7.5°
Maximum altitude 09:05:24 61° 220° (SW) 1,476 8.8 4.6°
Drops below altitude 10° 09:11:40 10° 139° (SE) 2,622 9.4 3.1°
Sets 09:13:43 0° 135° (SE) 3,336 9.9 2.6°
